Regional Weather Roundup
Issued by NWS

Home | Current Version | Previous Version | Graphics & Text | Print | Product List | Glossary On
Versions: 1 2 3 4 5 6 7 8 9 10 11 12 13 14 15 16 17 18 19 20 21 22 23 24 25 26 27 28 29 30 31 32 33 34 35 36 37 38 39 40 41 42 43 44 45 46 47 48 49 50
000
ASUS43 KBIS 052310
RWRND

NORTH DAKOTA REGIONAL WEATHER ROUNDUP
NATIONAL WEATHER SERVICE BISMARCK ND
600 PM CDT THU MAY 05 2016

NOTE: "FAIR" INDICATES FEW OR NO CLOUDS BELOW 12,000 FEET WITH NO
SIGNIFICANT WEATHER AND/OR OBSTRUCTIONS TO VISIBILITY.


NDZ001>003-009>011-017-060000-
NORTHWEST NORTH DAKOTA

CITY           SKY/WX    TMP DP  RH WIND       PRES   REMARKS
WILLISTON      MOSUNNY   88  37  16 SW12      29.75F
MINOT          SUNNY     93  36  13 SW7       29.73F
MINOT AFB      MOSUNNY   89  39  17 SW13      29.72S
$$

NDZ018>021-031>035-040>046-060000-
SOUTHWEST NORTH DAKOTA

CITY           SKY/WX    TMP DP  RH WIND       PRES   REMARKS
BISMARCK       SUNNY     87  44  22 SW9       29.78F
DICKINSON      MOSUNNY   84  42  22 CALM      29.80F
GARRISON         N/A     87  38  17 SW8       29.77F
HETTINGER ARPT CLOUDY    83  44  25 CALM      29.84F
$$

NDZ004>008-012>016-024-026-027-054-060000-
NORTHEAST NORTH DAKOTA

CITY           SKY/WX    TMP DP  RH WIND       PRES   REMARKS
GRAND FORKS    MOSUNNY   92  38  15 W12       29.72F
GRND FRKS AFB  SUNNY     90  37  15 W9G17     29.73F
DEVILS LAKE    SUNNY     85  42  22 S10       29.76F
$$

NDZ022-023-025-028>030-036>039-047>053-060000-
SOUTHEAST NORTH DAKOTA

CITY           SKY/WX    TMP DP  RH WIND       PRES   REMARKS
FARGO          SUNNY     90  36  14 SW16      29.76F
JAMESTOWN      SUNNY     87  41  19 SW15G22   29.77F
$$





USA.gov is the U.S. government's official web portal to all federal, state and local government web resources and services.